CW3508 Weather Reports


Display with metric or nautical units.
time (UTC)temp
F
wind
direction
speed
MPH
gust
MPH
rain 1hr
in
rain 24hr
in
rain mn
in
humidity
%
barometer
mb
20260506083024 69 157 2.0 7.0 0.00 0.00 0.00 84 1008.2
20260506082526 69 146 1.0 4.0 0.00 0.00 0.00 84 1008.2
20260506081531 69 74 1.0 6.0 0.00 0.00 0.00 83 1008.2
20260506081020 69 159 1.0 6.0 0.00 0.00 0.00 83 1008.2
20260506080520 69 161 0.0 3.0 0.00 0.00 0.00 83 1008.2
20260506073020 69 175 1.0 7.0 0.00 0.00 0.00 81 1008.2
20260506072602 69 173 3.0 6.0 0.00 0.00 0.00 80 1008.3
20260506072044 69 158 2.0 5.0 0.00 0.00 0.00 80 1008.3
20260506071534 69 171 1.0 4.0 0.00 0.00 0.00 80 1008.3
20260506071016 70 148 2.0 4.0 0.00 0.00 0.00 80 1008.6
20260506070521 70 162 0.0 6.0 0.00 0.00 0.00 80 1008.6
20260506061520 70 169 2.0 6.0 0.00 0.00 0.00 78 1008.9
20260506061038 70 140 2.0 5.0 0.00 0.00 0.00 79 1009.1
20260506060557 70 159 1.0 3.0 0.00 0.00 0.00 78 1009.1
20260506051022 71 131 2.0 6.0 0.00 0.00 0.00 77 1009.1
20260506050525 71 290 2.0 6.0 0.00 0.00 0.00 77 1009.1
20260506045021 71 161 2.0 5.0 0.00 0.00 0.00 76 1008.9
20260506044539 71 150 2.0 7.0 0.00 0.00 0.00 76 1008.9
20260506044037 71 171 1.0 7.0 0.00 0.00 0.00 76 1008.6
20260506043523 71 177 2.0 9.0 0.00 0.00 0.00 76 1008.6
20260506043029 71 194 3.0 9.0 0.00 0.00 0.00 75 1008.6
20260506042544 72 94 3.0 6.0 0.00 0.00 0.00 75 1008.7
20260506042027 72 198 1.0 6.0 0.00 0.00 0.00 75 1008.7
20260506041529 72 180 3.0 7.0 0.00 0.00 0.00 75 1008.7
20260506041029 72 97 2.0 8.0 0.00 0.00 0.00 75 1008.7
20260506040033 72 146 1.0 5.0 0.00 0.00 0.00 76 1008.7
20260506035513 72 161 2.0 5.0 0.00 0.00 0.00 75 1008.7
20260506035016 72 142 2.0 5.0 0.00 0.00 0.00 75 1008.7
20260506034534 72 149 2.0 5.0 0.00 0.00 0.00 75 1008.7
20260506034024 72 167 2.0 8.0 0.00 0.00 0.00 75 1008.8
20260506033526 72 198 2.0 8.0 0.00 0.00 0.00 74 1008.8
20260506032553 72 178 3.0 11.0 0.00 0.00 0.00 75 1008.9
20260506032015 72 154 1.0 6.0 0.00 0.00 0.00 75 1008.9
20260506031525 71 139 1.0 7.0 0.00 0.00 0.00 74 1008.9
20260506031036 71 214 3.0 7.0 0.00 0.00 0.00 74 1008.6
20260506030544 71 163 1.0 5.0 0.00 0.00 0.00 75 1008.6
20260506030046 71 146 1.0 5.0 0.00 0.00 0.00 75 1008.6
20260506025532 71 200 1.0 5.0 0.00 0.00 0.00 75 1008.6
20260506025022 71 324 1.0 2.0 0.00 0.00 0.00 75 1008.6
20260506024556 71 140 0.0 3.0 0.00 0.00 0.00 74 1008.6
20260506023524 70 153 1.0 3.0 0.00 0.00 0.00 74 1008.5
20260506023028 70 188 1.0 3.0 0.00 0.00 0.00 74 1008.5
20260506022541 70 186 1.0 3.0 0.00 0.00 0.00 74 1008.2
20260506022034 70 186 1.0 2.0 0.00 0.00 0.00 74 1008.2
20260506021549 71 186 0.0 1.0 0.00 0.00 0.00 74 1008.2
20260506021031 71 186 0.0 1.0 0.00 0.00 0.00 75 1008.3
20260506020518 71 186 0.0 1.0 0.00 0.00 0.00 75 1008.3
20260506020026 71 186 0.0 0.0 0.00 0.00 0.00 75 1008.3
20260506015535 71 186 0.0 0.0 0.00 0.00 0.00 75 1008.2
20260506015035 71 186 0.0 0.0 0.00 0.00 0.00 74 1008.2
20260506014528 72 186 0.0 0.0 0.00 0.00 0.00 74 1008.2
20260506014028 72 186 0.0 0.0 0.00 0.00 0.00 74 1008.2
20260506013525 72 186 0.0 0.0 0.00 0.00 0.00 74 1008.2
20260506013021 72 186 0.0 1.0 0.00 0.00 0.00 74 1008.2
20260506012528 72 186 0.0 1.0 0.00 0.00 0.00 74 1008.6
20260506012032 72 186 0.0 1.0 0.00 0.00 0.00 73 1008.6
20260506011034 72 186 0.0 1.0 0.00 0.00 0.00 72 1008.2
20260506010537 73 186 0.0 1.0 0.00 0.00 0.00 71 1008.2
20260506010045 73 186 0.0 0.0 0.00 0.00 0.00 72 1008.2
20260506005533 73 186 0.0 1.0 0.00 0.00 0.00 71 1008.1
20260506005029 74 186 0.0 1.0 0.00 0.00 0.00 71 1008.1
20260506004526 74 186 0.0 1.0 0.00 0.00 0.00 70 1008.1
20260506004022 74 186 0.0 1.0 0.00 0.00 0.00 71 1008.0
20260506003529 74 186 0.0 1.0 0.00 0.00 0.00 71 1008.0
20260506003043 74 186 0.0 2.0 0.00 0.00 0.00 70 1008.0
20260506002537 75 186 1.0 2.0 0.00 0.00 0.00 67 1008.2
20260506002021 75 186 1.0 2.0 0.00 0.00 0.00 69 1008.2
20260506001524 75 186 0.0 2.0 0.00 0.00 0.00 68 1008.2
20260506001028 75 163 1.0 3.0 0.00 0.00 0.00 66 1008.6
20260506000542 75 163 1.0 3.0 0.00 0.00 0.00 67 1008.6
20260506000044 75 158 1.0 2.0 0.00 0.00 0.00 67 1008.6
20260505235525 76 158 1.0 2.0 0.00 0.00 0.00 67 1008.3
20260505235034 76 157 1.0 4.0 0.00 0.00 0.00 66 1008.3
20260505234523 76 157 1.0 4.0 0.00 0.00 0.00 64 1008.3
20260505234029 76 147 0.0 4.0 0.00 0.00 0.00 64 1008.6
20260505233533 76 174 1.0 4.0 0.00 0.00 0.00 65 1008.6
20260505233022 76 155 1.0 4.0 0.00 0.00 0.00 65 1008.6
20260505232527 76 169 1.0 3.0 0.00 0.00 0.00 63 1008.7
20260505232031 76 122 0.0 3.0 0.00 0.00 0.00 66 1008.7
20260505231518 76 122 1.0 3.0 0.00 0.00 0.00 63 1008.7
20260505231025 76 146 1.0 4.0 0.00 0.00 0.00 65 1008.7
20260505230535 76 147 1.0 7.0 0.00 0.00 0.00 64 1008.7
20260505230041 76 117 3.0 6.0 0.00 0.00 0.00 62 1008.7
20260505225602 76 154 1.0 5.0 0.00 0.00 0.00 63 1009.1
20260505225051 76 101 2.0 5.0 0.00 0.00 0.00 65 1009.1
20260505224541 76 183 1.0 4.0 0.00 0.00 0.00 64 1009.1
20260505224027 76 207 1.0 4.0 0.00 0.00 0.00 64 1009.0
20260505223523 77 157 2.0 4.0 0.00 0.00 0.00 62 1009.0
20260505223025 77 159 1.0 4.0 0.00 0.00 0.00 63 1009.0
20260505222531 77 161 1.0 7.0 0.00 0.00 0.00 62 1008.7
20260505222021 77 162 2.0 7.0 0.00 0.00 0.00 62 1008.7
20260505221523 77 202 2.0 6.0 0.00 0.00 0.00 61 1008.7
20260505221029 77 165 2.0 5.0 0.00 0.00 0.00 61 1008.8
20260505220519 77 150 2.0 5.0 0.00 0.00 0.00 62 1008.8
20260505220024 77 157 2.0 4.0 0.00 0.00 0.00 62 1008.8
20260505215534 77 177 1.0 4.0 0.00 0.00 0.00 63 1009.0
20260505215023 77 146 1.0 6.0 0.00 0.00 0.00 62 1009.0
20260505214542 77 177 2.0 6.0 0.00 0.00 0.00 62 1009.0
20260505214042 77 179 2.0 7.0 0.00 0.00 0.00 60 1008.9
20260505213602 77 152 1.0 7.0 0.00 0.00 0.00 61 1008.9
20260505213030 77 123 2.0 6.0 0.00 0.00 0.00 62 1008.9
20260505212520 77 103 2.0 6.0 0.00 0.00 0.00 61 1008.9
20260505212025 77 134 3.0 6.0 0.00 0.00 0.00 61 1008.9
20260505211520 77 88 2.0 7.0 0.00 0.00 0.00 60 1008.9
20260505211018 77 178 3.0 7.0 0.00 0.00 0.00 61 1008.7
20260505210517 77 141 2.0 7.0 0.00 0.00 0.00 62 1008.7
20260505210018 77 202 2.0 7.0 0.00 0.00 0.00 62 1008.7
20260505205540 77 300 3.0 6.0 0.00 0.00 0.00 61 1009.1
20260505205039 77 182 2.0 5.0 0.00 0.00 0.00 61 1009.1
20260505204538 77 140 2.0 6.0 0.00 0.00 0.00 60 1009.1
20260505204035 77 157 2.0 6.0 0.00 0.00 0.00 61 1009.1
20260505203522 77 298 2.0 5.0 0.00 0.00 0.00 63 1009.1
20260505203026 77 284 1.0 7.0 0.00 0.00 0.00 61 1009.1
20260505202519 77 87 3.0 7.0 0.00 0.00 0.00 61 1009.2
20260505202030 77 140 1.0 6.0 0.00 0.00 0.00 62 1009.2
20260505201533 77 147 2.0 6.0 0.00 0.00 0.00 61 1009.2
20260505201033 77 274 1.0 5.0 0.00 0.00 0.00 61 1009.7
20260505200518 77 161 2.0 6.0 0.00 0.00 0.00 62 1009.7
20260505200028 77 157 1.0 6.0 0.00 0.00 0.00 61 1009.7
20260505195519 77 150 2.0 5.0 0.00 0.00 0.00 62 1009.8
20260505195034 77 148 1.0 5.0 0.00 0.00 0.00 61 1009.8
20260505194537 77 153 2.0 6.0 0.00 0.00 0.00 61 1009.8
20260505194039 77 122 1.0 4.0 0.00 0.00 0.00 61 1010.0
20260505193526 77 296 1.0 3.0 0.00 0.00 0.00 63 1010.0
20260505193035 77 128 1.0 7.0 0.00 0.00 0.00 61 1010.0
20260505192534 77 198 4.0 7.0 0.00 0.00 0.00 61 1009.9
20260505192022 77 340 2.0 5.0 0.00 0.00 0.00 62 1009.9
20260505191540 77 271 1.0 4.0 0.00 0.00 0.00 62 1009.9
20260505191043 77 169 1.0 5.0 0.00 0.00 0.00 61 1010.2
20260505190531 77 181 1.0 6.0 0.00 0.00 0.00 60 1010.2
20260505185522 78 142 1.0 4.0 0.00 0.00 0.00 61 1010.4
20260505185027 77 285 1.0 7.0 0.00 0.00 0.00 62 1010.4
20260505184557 77 240 3.0 7.0 0.00 0.00 0.00 61 1010.4
20260505184021 77 313 2.0 6.0 0.00 0.00 0.00 62 1010.7
20260505183553 77 172 2.0 6.0 0.00 0.00 0.00 61 1010.7
20260505183038 76 298 1.0 5.0 0.00 0.00 0.00 63 1010.7
20260505182527 76 173 3.0 7.0 0.00 0.00 0.00 63 1010.8
20260505182029 76 147 1.0 7.0 0.00 0.00 0.00 63 1010.8
20260505181534 75 170 1.0 4.0 0.00 0.00 0.00 65 1010.8
20260505180533 76 155 2.0 6.0 0.00 0.00 0.00 62 1010.8
20260505180035 76 179 2.0 8.0 0.00 0.00 0.00 62 1010.8
20260505175521 76 137 1.0 3.0 0.00 0.00 0.00 63 1011.2
20260505175035 76 137 1.0 4.0 0.00 0.00 0.00 64 1011.2
20260505174543 76 107 1.0 6.0 0.00 0.00 0.00 63 1011.2
20260505174043 76 132 2.0 7.0 0.00 0.00 0.00 63 1011.3
20260505173017 77 185 2.0 6.0 0.00 0.00 0.00 60 1011.3
20260505172516 77 285 2.0 5.0 0.00 0.00 0.00 63 1011.3
20260505172017 76 281 1.0 4.0 0.00 0.00 0.00 63 1011.3
20260505171534 76 228 0.0 7.0 0.00 0.00 0.00 62 1011.3
20260505171035 76 173 3.0 7.0 0.00 0.00 0.00 62 1011.6
20260505170518 75 161 2.0 7.0 0.00 0.00 0.00 63 1011.6
20260505170034 75 178 2.0 7.0 0.00 0.00 0.00 64 1011.6
20260505165532 75 158 2.0 5.0 0.00 0.00 0.00 63 1011.8
20260505165030 75 175 2.0 5.0 0.00 0.00 0.00 63 1011.8
20260505164529 75 182 2.0 5.0 0.00 0.00 0.00 63 1011.8
20260505164046 75 163 2.0 6.0 0.00 0.00 0.00 65 1011.8
20260505163529 75 142 1.0 6.0 0.00 0.00 0.00 66 1011.8
20260505163033 75 169 1.0 11.0 0.00 0.00 0.00 64 1011.8
20260505162517 74 148 2.0 11.0 0.00 0.00 0.00 66 1011.7
20260505162030 74 148 2.0 6.0 0.00 0.00 0.00 65 1011.7
20260505161532 73 209 2.0 7.0 0.00 0.00 0.00 67 1011.7
20260505161018 73 156 3.0 7.0 0.00 0.00 0.00 69 1011.7
20260505160517 72 166 1.0 8.0 0.00 0.00 0.00 68 1011.7
20260505153029 70 155 1.0 6.0 0.00 0.00 0.00 72 1011.8
20260505152532 70 162 2.0 6.0 0.00 0.00 0.00 72 1011.9
20260505151550 69 177 2.0 5.0 0.00 0.00 0.00 74 1011.9
20260505151036 68 177 0.0 5.0 0.00 0.00 0.00 74 1011.9
20260505150543 68 163 1.0 5.0 0.00 0.00 0.00 74 1011.9
20260505140523 63 164 2.0 5.0 0.00 0.00 0.00 81 1012.0
20260505125036 55 228 0.0 0.0 0.00 0.00 0.00 94 1011.2
20260505124522 55 228 0.0 0.0 0.00 0.00 0.00 93 1011.2
20260505124025 55 228 0.0 0.0 0.00 0.00 0.00 93 1010.8
20260505123537 54 228 0.0 0.0 0.00 0.00 0.00 93 1010.8
20260505123039 54 228 0.0 0.0 0.00 0.00 0.00 93 1010.8
20260505122529 54 228 0.0 0.0 0.00 0.00 0.00 93 1010.8
20260505122016 54 228 0.0 0.0 0.00 0.00 0.00 93 1010.8
20260505121545 54 228 0.0 0.0 0.00 0.00 0.00 93 1010.8
20260505121029 54 228 0.0 0.0 0.00 0.00 0.00 92 1010.7
20260505120536 53 228 0.0 0.0 0.00 0.00 0.00 92 1010.7
20260505120018 53 228 0.0 1.0 0.00 0.00 0.00 92 1010.7
20260505115035 53 228 0.0 0.0 0.00 0.00 0.00 92 1010.4
20260505114535 53 228 0.0 0.0 0.00 0.00 0.00 92 1010.4
20260505114043 53 228 0.0 1.0 0.00 0.00 0.00 91 1010.4
20260505113529 53 228 0.0 1.0 0.00 0.00 0.00 91 1010.4
20260505113058 53 228 0.0 0.0 0.00 0.00 0.00 91 1010.4
20260505112535 53 228 0.0 0.0 0.00 0.00 0.00 91 1010.2
20260505112025 53 228 0.0 0.0 0.00 0.00 0.00 91 1010.2
20260505111527 53 227 0.0 0.0 0.00 0.00 0.00 91 1010.2
20260505111016 54 227 0.0 0.0 0.00 0.00 0.00 90 1010.2
20260505110529 54 227 0.0 0.0 0.00 0.00 0.00 91 1010.2
20260505102040 55 227 0.0 1.0 0.00 0.00 0.00 91 1009.8
20260505101544 55 227 0.0 1.0 0.00 0.00 0.00 91 1009.8
20260505100524 55 227 0.0 1.0 0.00 0.00 0.00 91 1009.8
20260505100024 55 227 0.0 1.0 0.00 0.00 0.00 91 1009.8
20260505095540 55 227 0.0 1.0 0.00 0.00 0.00 91 1010.1
20260505095052 54 227 0.0 1.0 0.00 0.00 0.00 90 1010.1
20260505094534 54 227 0.0 1.0 0.00 0.00 0.00 90 1010.1
20260505094023 54 228 0.0 1.0 0.00 0.00 0.00 90 1010.2
20260505093555 54 153 0.0 1.0 0.00 0.00 0.00 90 1010.2
20260505093015 54 153 0.0 1.0 0.00 0.00 0.00 89 1010.2
20260505092521 55 153 0.0 0.0 0.00 0.00 0.00 89 1010.3
20260505092033 55 153 0.0 0.0 0.00 0.00 0.00 89 1010.3
20260505091537 55 153 0.0 1.0 0.00 0.00 0.00 89 1010.3
20260505091038 55 153 0.0 1.0 0.00 0.00 0.00 88 1010.3
20260505090525 55 153 0.0 1.0 0.00 0.00 0.00 88 1010.3
20260505090057 55 153 0.0 1.0 0.00 0.00 0.00 88 1010.3
20260505085539 55 153 0.0 0.0 0.00 0.00 0.00 87 1010.4
20260505084536 56 153 0.0 1.0 0.00 0.00 0.00 87 1010.4
20260505084018 56 153 0.0 0.0 0.00 0.00 0.00 87 1010.4
20260505083531 56 153 0.0 0.0 0.00 0.00 0.00 87 1010.4